,,,PA_Meas_PMT16A,,PR_Meas_QMR101_102,,RH_Meas_QMH101,,SR_Meas_QMS101,,TA_Meas_QMH101,,GenWind,,GenWind,
date,time,status,PA,status,PR,status,RH,status,SR,status,TA,status,DirAvg,status,SpdAvg,
2010-07-03, 00:00:04,VALID,1000.33,VALID,0,VALID,88.5417,VALID,0,VALID,23.914,VALID,309,VALID,0.565234,
2010-07-03, 00:01:04,VALID,1000.33,VALID,0,VALID,88.1374,VALID,0,VALID,24.0134,VALID,303,VALID,0.546875,
2010-07-03, 00:02:04,VALID,1000.33,VALID,0,VALID,87.8551,VALID,0,VALID,24.0329,VALID,303,VALID,0.508594,
2010-07-03, 00:03:04,VALID,1000.35,VALID,0,VALID,87.9771,VALID,0,VALID,24.0329,VALID,303,VALID,0.437109,
2010-07-03, 00:04:04,VALID,1000.36,VALID,0,VALID,87.6949,VALID,0,VALID,23.9939,VALID,353,VALID,0.70625,
2010-07-03, 00:05:04,VALID,1000.35,VALID,0,VALID,88.1526,VALID,0,VALID,23.9744,VALID,28,VALID,0.808984,
2010-07-03, 00:06:04,VALID,1000.34,VALID,0,VALID,88.3052,VALID,0,VALID,23.9354,VALID,29,VALID,0.814453,
2010-07-03, 00:07:04,VALID,1000.34,VALID,0,VALID,88.1908,VALID,0,VALID,23.9354,VALID,29,VALID,0.826953,
2010-07-03, 00:08:04,VALID,1000.34,VALID,0,VALID,88.1755,VALID,0,VALID,23.9549,VALID,29,VALID,0.677344,
2010-07-03, 00:09:04,VALID,1000.31,VALID,0,VALID,88.1068,VALID,0,VALID,23.9549,VALID,29,VALID,0.314844,
2010-07-03, 00:10:04,VALID,1000.36,VALID,0,VALID,88.1908,VALID,0,VALID,23.9336,VALID,26,VALID,0.31875,
2010-07-03, 00:11:04,VALID,1000.37,VALID,0,VALID,88.1832,VALID,0,VALID,23.9744,VALID,300,VALID,0.665234,
2010-07-03, 00:12:04,VALID,1000.37,VALID,0,VALID,88.2671,VALID,0,VALID,24.0134,VALID,284,VALID,0.534766,
2010-07-03, 00:13:04,VALID,1000.37,VALID,0,VALID,88.0916,VALID,0,VALID,23.9939,VALID,148,VALID,0.795703,
2010-07-03, 00:14:04,VALID,1000.36,VALID,0,VALID,88.3968,VALID,0,VALID,24.0348,VALID,165,VALID,1.10898,
2010-07-03, 00:15:04,VALID,1000.32,VALID,0,VALID,88.412,VALID,0,VALID,24.072,VALID,165,VALID,1.38867,
2010-07-03, 00:16:04,VALID,1000.3,VALID,0,VALID,88.1297,VALID,0,VALID,24.15,VALID,164,VALID,0.696094,
2010-07-03, 00:17:04,VALID,1000.29,VALID,0,VALID,87.8551,VALID,0,VALID,24.1891,VALID,164,VALID,0.220703,
2010-07-03, 00:18:04,VALID,1000.28,VALID,0,VALID,87.733,VALID,0,VALID,24.2281,VALID,164,VALID,0.243359,
2010-07-03, 00:19:04,VALID,1000.25,VALID,0,VALID,87.7635,VALID,0,VALID,24.2281,VALID,165,VALID,0.454297,
2010-07-03, 00:20:04,VALID,1000.27,VALID,0,VALID,87.5651,VALID,0,VALID,24.2281,VALID,165,VALID,0.9125,
2010-07-03, 00:21:04,VALID,1000.27,VALID,0,VALID,87.3897,VALID,0,VALID,24.2281,VALID,339,VALID,1.06406,
2010-07-03, 00:22:04,VALID,1000.3,VALID,0,VALID,87.588,VALID,0,VALID,24.15,VALID,5,VALID,1.50586,
2010-07-03, 00:23:04,VALID,1000.28,VALID,0,VALID,88,VALID,0,VALID,24.072,VALID,10,VALID,1.49414,
2010-07-03, 00:24:04,VALID,1000.28,VALID,0,VALID,88.4349,VALID,0,VALID,23.9744,VALID,24,VALID,1.8082,
2010-07-03, 00:25:04,VALID,1000.28,VALID,0,VALID,88.8469,VALID,0,VALID,23.8963,VALID,31,VALID,1.88633,
2010-07-03, 00:26:04,VALID,1000.3,VALID,0,VALID,89.2742,VALID,0,VALID,23.8573,VALID,41,VALID,1.73438,
2010-07-03, 00:27:04,VALID,1000.27,VALID,0,VALID,89.5641,VALID,0,VALID,23.8378,VALID,33,VALID,1.71406,
2010-07-03, 00:28:04,VALID,1000.27,VALID,0,VALID,89.9074,VALID,0,VALID,23.8183,VALID,27,VALID,1.8832,
2010-07-03, 00:29:04,VALID,1000.24,VALID,0,VALID,90.0066,VALID,0,VALID,23.8183,VALID,24,VALID,1.50312,
2010-07-03, 00:30:04,VALID,1000.22,VALID,0,VALID,89.854,VALID,0,VALID,23.8183,VALID,17,VALID,1.40352,
2010-07-03, 00:31:04,VALID,1000.16,VALID,0,VALID,89.5717,VALID,0,VALID,23.7988,VALID,9,VALID,1.35195,
2010-07-03, 00:32:04,VALID,1000.16,VALID,0,VALID,89.236,VALID,0,VALID,23.7988,VALID,13,VALID,1.19062,
2010-07-03, 00:33:04,VALID,1000.2,VALID,0,VALID,88.9537,VALID,0,VALID,23.8183,VALID,15,VALID,0.916797,
2010-07-03, 00:34:04,VALID,1000.15,VALID,0,VALID,88.6714,VALID,0,VALID,23.8768,VALID,16,VALID,0.797656,
2010-07-03, 00:35:04,VALID,1000.11,VALID,0,VALID,88.4654,VALID,0,VALID,23.8963,VALID,3,VALID,1.03789,
2010-07-03, 00:36:04,VALID,1000.08,VALID,0,VALID,88.3052,VALID,0,VALID,23.9354,VALID,4,VALID,0.717969,
2010-07-03, 00:37:04,VALID,1000.06,VALID,0,VALID,87.9771,VALID,0,VALID,23.9549,VALID,2,VALID,0.940234,
2010-07-03, 00:38:04,VALID,1000.06,VALID,0,VALID,87.8246,VALID,0,VALID,23.9939,VALID,11,VALID,0.947656,
2010-07-03, 00:39:04,VALID,1000.06,VALID,0,VALID,87.382,VALID,0,VALID,24.0134,VALID,34,VALID,1.16641,
2010-07-03, 00:40:04,VALID,1000.11,VALID,0,VALID,87.1989,VALID,0,VALID,24.072,VALID,49,VALID,0.885547,
2010-07-03, 00:41:04,VALID,1000.09,VALID,0,VALID,87.0311,VALID,0,VALID,24.1324,VALID,44,VALID,0.904688,
2010-07-03, 00:42:04,VALID,1000.12,VALID,0,VALID,86.8937,VALID,0,VALID,24.15,VALID,68,VALID,1.04961,
2010-07-03, 00:43:04,VALID,1000.12,VALID,0,VALID,87.0311,VALID,0,VALID,24.1891,VALID,77,VALID,1.34102,
2010-07-03, 00:44:04,VALID,1000.08,VALID,0,VALID,87.6643,VALID,0,VALID,24.2281,VALID,85,VALID,1.2168,
2010-07-03, 00:45:04,VALID,1000.09,VALID,0,VALID,87.8246,VALID,0,VALID,24.1677,VALID,94,VALID,0.872656,
2010-07-03, 00:46:04,VALID,1000.06,VALID,0,VALID,88.0763,VALID,0,VALID,24.1891,VALID,94,VALID,0.514844,
2010-07-03, 00:47:04,VALID,1000.04,VALID,0,VALID,88.0382,VALID,0,VALID,24.1696,VALID,88,VALID,1.01055,
2010-07-03, 00:48:04,VALID,1000.03,VALID,0,VALID,88.0916,VALID,0,VALID,24.1891,VALID,74,VALID,1.0043,
2010-07-03, 00:49:04,VALID,1000.05,VALID,0,VALID,88.0306,VALID,0,VALID,24.1891,VALID,70,VALID,0.779688,
2010-07-03, 00:50:04,VALID,999.988,VALID,0,VALID,87.9695,VALID,0,VALID,24.1891,VALID,53,VALID,0.702344,
2010-07-03, 00:51:04,VALID,999.988,VALID,0,VALID,88.0992,VALID,0,VALID,24.1891,VALID,47,VALID,0.537891,
2010-07-03, 00:52:04,VALID,999.977,VALID,0,VALID,88.5036,VALID,0,VALID,24.2281,VALID,47,VALID,0.426562,
2010-07-03, 00:53:04,VALID,999.942,VALID,0,VALID,88.4426,VALID,0,VALID,24.2086,VALID,47,VALID,0.310156,
2010-07-03, 00:54:04,VALID,999.927,VALID,0,VALID,88.3892,VALID,0,VALID,24.2086,VALID,47,VALID,0.407422,
2010-07-03, 00:55:04,VALID,999.971,VALID,0,VALID,88.145,VALID,0,VALID,24.1891,VALID,47,VALID,0.248437,
2010-07-03, 00:56:04,VALID,999.986,VALID,0,VALID,88.2137,VALID,0,VALID,24.2086,VALID,47,VALID,0.00859375,
2010-07-03, 00:57:04,VALID,1000.02,VALID,0,VALID,88.5951,VALID,0,VALID,24.2281,VALID,60,VALID,0.569922,
2010-07-03, 00:58:04,VALID,1000.03,VALID,0,VALID,88.7249,VALID,0,VALID,24.2476,VALID,129,VALID,1.48711,
2010-07-03, 00:59:04,VALID,1000.02,VALID,0,VALID,88.557,VALID,0,VALID,24.2476,VALID,136,VALID,0.878516,
2010-07-03, 01:00:04,VALID,999.976,VALID,0,VALID,88.2747,VALID,0,VALID,24.2671,VALID,136,VALID,0.274609,
2010-07-03, 01:01:04,VALID,999.965,VALID,0,VALID,88.0687,VALID,0,VALID,24.2866,VALID,136,VALID,0,
2010-07-03, 01:02:04,VALID,999.981,VALID,0,VALID,88.2594,VALID,0,VALID,24.2848,VALID,136,VALID,0.459766,
2010-07-03, 01:03:04,VALID,999.993,VALID,0,VALID,87.6949,VALID,0,VALID,24.2848,VALID,51,VALID,1.19648,
2010-07-03, 01:04:04,VALID,999.986,VALID,0,VALID,88.145,VALID,0,VALID,24.3452,VALID,50,VALID,1.20625,
2010-07-03, 01:05:04,VALID,999.995,VALID,0,VALID,88.084,VALID,0,VALID,24.3452,VALID,50,VALID,1.40664,
2010-07-03, 01:06:04,VALID,999.945,VALID,0,VALID,88.0763,VALID,0,VALID,24.3666,VALID,43,VALID,0.938672,
2010-07-03, 01:07:04,VALID,999.962,VALID,0,VALID,88.1297,VALID,0,VALID,24.3647,VALID,41,VALID,0.929297,
2010-07-03, 01:08:04,VALID,999.901,VALID,0,VALID,87.9237,VALID,0,VALID,24.3647,VALID,35,VALID,0.850391,
2010-07-03, 01:09:04,VALID,999.916,VALID,0,VALID,87.7177,VALID,0,VALID,24.3842,VALID,349,VALID,0.923047,
2010-07-03, 01:10:04,VALID,999.947,VALID,0,VALID,87.2829,VALID,0,VALID,24.3842,VALID,345,VALID,0.940625,
2010-07-03, 01:11:04,VALID,999.948,VALID,0,VALID,87.527,VALID,0,VALID,24.4446,VALID,340,VALID,0.444922,
2010-07-03, 01:12:04,VALID,999.962,VALID,0,VALID,87.6186,VALID,0,VALID,24.4428,VALID,333,VALID,0.229687,
2010-07-03, 01:13:04,VALID,999.979,VALID,0,VALID,87.588,VALID,0,VALID,24.4233,VALID,245,VALID,0.492969,
2010-07-03, 01:14:04,VALID,999.968,VALID,0,VALID,87.4049,VALID,0,VALID,24.4037,VALID,206,VALID,0.5875,
2010-07-03, 01:15:04,VALID,999.977,VALID,0,VALID,87.3363,VALID,0,VALID,24.4037,VALID,198,VALID,0.453516,
2010-07-03, 01:16:04,VALID,999.964,VALID,0,VALID,87.4202,VALID,0,VALID,24.4037,VALID,164,VALID,0.930859,
2010-07-03, 01:17:04,VALID,999.907,VALID,0,VALID,87.3592,VALID,0,VALID,24.4642,VALID,164,VALID,0.469531,
2010-07-03, 01:18:04,VALID,999.919,VALID,0,VALID,86.9472,VALID,0,VALID,24.5013,VALID,164,VALID,0.59375,
2010-07-03, 01:19:04,VALID,999.884,VALID,0,VALID,86.4512,VALID,0,VALID,24.5813,VALID,164,VALID,0.615234,
2010-07-03, 01:20:04,VALID,999.874,VALID,0,VALID,85.9782,VALID,0,VALID,24.638,VALID,163,VALID,0.710156,
2010-07-03, 01:21:04,VALID,999.883,VALID,0,VALID,85.4823,VALID,0,VALID,24.677,VALID,140,VALID,0.589063,
2010-07-03, 01:22:04,VALID,999.863,VALID,0,VALID,85.1237,VALID,0,VALID,24.7374,VALID,121,VALID,0.886719,
2010-07-03, 01:23:04,VALID,999.856,VALID,0,VALID,85.612,VALID,0,VALID,24.7551,VALID,107,VALID,0.996094,
2010-07-03, 01:24:04,VALID,999.856,VALID,0,VALID,85.261,VALID,0,VALID,24.7551,VALID,107,VALID,0.790234,
2010-07-03, 01:25:04,VALID,999.847,VALID,0,VALID,85.2763,VALID,0,VALID,24.7746,VALID,107,VALID,0.60625,
2010-07-03, 01:26:04,VALID,999.892,VALID,0,VALID,85.6196,VALID,0,VALID,24.7746,VALID,107,VALID,0.507813,
2010-07-03, 01:27:04,VALID,999.907,VALID,0,VALID,85.9172,VALID,0,VALID,24.7551,VALID,107,VALID,0.35,
2010-07-03, 01:28:04,VALID,999.942,VALID,0,VALID,85.9934,VALID,0,VALID,24.7356,VALID,107,VALID,0.178906,
2010-07-03, 01:29:04,VALID,999.915,VALID,0,VALID,86.1384,VALID,0,VALID,24.6965,VALID,107,VALID,0.0269531,
2010-07-03, 01:30:04,VALID,999.908,VALID,0,VALID,86.352,VALID,0,VALID,24.6965,VALID,107,VALID,0.347656,
2010-07-03, 01:31:04,VALID,999.896,VALID,0,VALID,86.6038,VALID,0,VALID,24.677,VALID,107,VALID,0.155859,
2010-07-03, 01:32:04,VALID,999.865,VALID,0,VALID,86.9319,VALID,0,VALID,24.6575,VALID,107,VALID,0.171875,
2010-07-03, 01:33:04,VALID,999.898,VALID,0,VALID,87.382,VALID,0,VALID,24.638,VALID,129,VALID,0.687891,
2010-07-03, 01:34:04,VALID,999.878,VALID,0,VALID,87.8474,VALID,0,VALID,24.5971,VALID,169,VALID,1.20195,
2010-07-03, 01:35:04,VALID,999.832,VALID,0,VALID,87.6567,VALID,0,VALID,24.6166,VALID,182,VALID,1.93008,
2010-07-03, 01:36:04,VALID,999.793,VALID,0,VALID,87.3134,VALID,0.112286,VALID,24.6751,VALID,207,VALID,1.17617,
2010-07-03, 01:37:04,VALID,999.773,VALID,0,VALID,86.3368,VALID,0,VALID,24.7142,VALID,217,VALID,1.1293,
2010-07-03, 01:38:04,VALID,999.767,VALID,0,VALID,85.9172,VALID,0,VALID,24.8117,VALID,215,VALID,0.83125,
2010-07-03, 01:39:04,VALID,999.749,VALID,0,VALID,85.7722,VALID,0.112286,VALID,24.8508,VALID,215,VALID,0.270312,
2010-07-03, 01:40:04,VALID,999.722,VALID,0,VALID,85.6272,VALID,0.112286,VALID,24.8703,VALID,215,VALID,0.344922,
2010-07-03, 01:41:04,VALID,999.685,VALID,0,VALID,85.7188,VALID,0.112286,VALID,24.9093,VALID,322,VALID,0.769141,
2010-07-03, 01:42:04,VALID,999.702,VALID,0,VALID,86.1842,VALID,0,VALID,24.8898,VALID,322,VALID,0.726563,
2010-07-03, 01:43:04,VALID,999.73,VALID,0,VALID,86.3826,VALID,0,VALID,24.8508,VALID,329,VALID,0.841016,
2010-07-03, 01:44:04,VALID,999.748,VALID,0,VALID,86.6496,VALID,0,VALID,24.7922,VALID,332,VALID,0.65625,
2010-07-03, 01:45:04,VALID,999.769,VALID,0,VALID,86.9395,VALID,0.112286,VALID,24.7337,VALID,5,VALID,0.9875,
2010-07-03, 01:46:04,VALID,999.78,VALID,0,VALID,87.2447,VALID,0.112286,VALID,24.6556,VALID,8,VALID,0.873047,
2010-07-03, 01:47:04,VALID,999.798,VALID,0,VALID,87.3592,VALID,0.112286,VALID,24.5775,VALID,8,VALID,0.940625,
2010-07-03, 01:48:04,VALID,999.761,VALID,0,VALID,87.6109,VALID,0,VALID,24.519,VALID,8,VALID,1.07852,
2010-07-03, 01:49:04,VALID,999.733,VALID,0,VALID,87.8398,VALID,0,VALID,24.4995,VALID,8,VALID,1.02656,
2010-07-03, 01:50:04,VALID,999.715,VALID,0,VALID,87.7864,VALID,0.112286,VALID,24.48,VALID,10,VALID,1.02891,
2010-07-03, 01:51:04,VALID,999.723,VALID,0,VALID,87.733,VALID,0,VALID,24.4604,VALID,28,VALID,1.09609,
2010-07-03, 01:52:04,VALID,999.756,VALID,0,VALID,87.8474,VALID,0,VALID,24.4214,VALID,34,VALID,1.20273,
2010-07-03, 01:53:04,VALID,999.748,VALID,0,VALID,88.0534,VALID,0,VALID,24.3824,VALID,68,VALID,1.09844,
2010-07-03, 01:54:04,VALID,999.776,VALID,0,VALID,88.0306,VALID,0,VALID,24.3433,VALID,77,VALID,0.610156,
2010-07-03, 01:55:04,VALID,999.741,VALID,0,VALID,88.0992,VALID,0,VALID,24.2848,VALID,77,VALID,0.484375,
2010-07-03, 01:56:04,VALID,999.731,VALID,0,VALID,88.3586,VALID,0,VALID,24.2263,VALID,77,VALID,0.331641,
2010-07-03, 01:57:04,VALID,999.712,VALID,0,VALID,88.8927,VALID,0,VALID,24.1872,VALID,338,VALID,0.941797,
2010-07-03, 01:58:04,VALID,999.727,VALID,0,VALID,88.8622,VALID,0,VALID,24.1482,VALID,323,VALID,0.90625,
2010-07-03, 01:59:04,VALID,999.768,VALID,0,VALID,88.9461,VALID,0,VALID,24.1287,VALID,324,VALID,0.759375,
2010-07-03, 02:00:04,VALID,999.808,VALID,0,VALID,89.1521,VALID,0.112286,VALID,24.0878,VALID,324,VALID,0.394531,
2010-07-03, 02:01:04,VALID,999.841,VALID,0,VALID,89.2666,VALID,0.112286,VALID,24.1092,VALID,314,VALID,0.471875,
2010-07-03, 02:02:04,VALID,999.896,VALID,0,VALID,89.381,VALID,0.112286,VALID,24.1287,VALID,224,VALID,0.845703,
2010-07-03, 02:03:04,VALID,999.92,VALID,0,VALID,89.1674,VALID,0,VALID,24.1677,VALID,210,VALID,1.15508,
2010-07-03, 02:04:04,VALID,999.909,VALID,0,VALID,89.0148,VALID,0,VALID,24.2067,VALID,210,VALID,0.929688,
2010-07-03, 02:05:04,VALID,999.924,VALID,0,VALID,88.8011,VALID,0,VALID,24.2671,VALID,210,VALID,0.649609,
2010-07-03, 02:06:04,VALID,999.926,VALID,0,VALID,88.6333,VALID,0,VALID,24.3062,VALID,210,VALID,0.371484,
2010-07-03, 02:07:04,VALID,999.91,VALID,0,VALID,88.351,VALID,0,VALID,24.3257,VALID,210,VALID,0.20625,
2010-07-03, 02:08:04,VALID,999.888,VALID,0,VALID,88.206,VALID,0,VALID,24.3062,VALID,210,VALID,0.353516,
2010-07-03, 02:09:04,VALID,999.868,VALID,0,VALID,88.0763,VALID,0,VALID,24.2866,VALID,96,VALID,0.7125,
2010-07-03, 02:10:04,VALID,999.875,VALID,0,VALID,87.9924,VALID,0,VALID,24.2653,VALID,62,VALID,0.675391,
2010-07-03, 02:11:04,VALID,999.869,VALID,0,VALID,88.084,VALID,0,VALID,24.2458,VALID,61,VALID,0.880469,
2010-07-03, 02:12:04,VALID,999.85,VALID,0,VALID,88.1603,VALID,0,VALID,24.2653,VALID,43,VALID,1.07773,
2010-07-03, 02:13:04,VALID,999.869,VALID,0,VALID,87.878,VALID,0,VALID,24.2671,VALID,37,VALID,0.959766,
2010-07-03, 02:14:04,VALID,999.859,VALID,0,VALID,87.3897,VALID,0,VALID,24.2086,VALID,37,VALID,0.404687,
2010-07-03, 02:15:04,VALID,999.842,VALID,0,VALID,87.6949,VALID,0,VALID,24.15,VALID,21,VALID,0.488281,
2010-07-03, 02:16:04,VALID,999.834,VALID,0,VALID,88.3892,VALID,0,VALID,24.111,VALID,309,VALID,0.669531,
2010-07-03, 02:17:04,VALID,999.811,VALID,0,VALID,88.5875,VALID,0,VALID,24.0915,VALID,309,VALID,0.709766,
2010-07-03, 02:18:04,VALID,999.808,VALID,0,VALID,88.6638,VALID,0,VALID,24.0525,VALID,309,VALID,0.7875,
2010-07-03, 02:19:04,VALID,999.786,VALID,0,VALID,88.9843,VALID,0,VALID,24.0134,VALID,307,VALID,0.969141,
2010-07-03, 02:20:04,VALID,999.766,VALID,0,VALID,89.3657,VALID,0,VALID,23.9939,VALID,297,VALID,1.18711,
2010-07-03, 02:21:04,VALID,999.77,VALID,0,VALID,89.3428,VALID,0,VALID,24.0134,VALID,301,VALID,0.501953,
2010-07-03, 02:22:04,VALID,999.742,VALID,0,VALID,88.6791,VALID,0,VALID,23.9354,VALID,43,VALID,1.70156,
2010-07-03, 02:23:04,VALID,999.727,VALID,0,VALID,89.4573,VALID,0,VALID,23.8768,VALID,34,VALID,1.13281,
2010-07-03, 02:24:04,VALID,999.675,VALID,0,VALID,89.5031,VALID,0,VALID,23.8768,VALID,348,VALID,0.904297,
2010-07-03, 02:25:04,VALID,999.683,VALID,0,VALID,89.114,VALID,0,VALID,23.8183,VALID,348,VALID,1.14375,
2010-07-03, 02:26:04,VALID,999.693,VALID,0,VALID,89.5946,VALID,0,VALID,23.7793,VALID,334,VALID,0.937891,
2010-07-03, 02:27:04,VALID,999.678,VALID,0,VALID,89.8159,VALID,0,VALID,23.7811,VALID,328,VALID,0.821484,
2010-07-03, 02:28:04,VALID,999.654,VALID,0,VALID,90.1058,VALID,0,VALID,23.7597,VALID,309,VALID,0.994531,
2010-07-03, 02:29:04,VALID,999.636,VALID,0,VALID,90.3347,VALID,0,VALID,23.7189,VALID,299,VALID,0.526563,
2010-07-03, 02:30:04,VALID,999.673,VALID,0,VALID,90.4873,VALID,0,VALID,23.7597,VALID,270,VALID,0.548047,
2010-07-03, 02:31:04,VALID,999.686,VALID,0,VALID,90.5102,VALID,0,VALID,23.7402,VALID,270,VALID,0.480469,
2010-07-03, 02:32:04,VALID,999.666,VALID,0,VALID,90.5026,VALID,0,VALID,23.7597,VALID,270,VALID,0.377344,
2010-07-03, 02:33:04,VALID,999.694,VALID,0,VALID,90.472,VALID,0,VALID,23.7597,VALID,270,VALID,0.483203,
2010-07-03, 02:34:04,VALID,999.677,VALID,0,VALID,90.4263,VALID,0,VALID,23.7402,VALID,270,VALID,0.485156,
2010-07-03, 02:35:04,VALID,999.698,VALID,0,VALID,90.1363,VALID,0,VALID,23.7207,VALID,186,VALID,0.689453,
2010-07-03, 02:36:04,VALID,999.719,VALID,0,VALID,90.6628,VALID,0,VALID,23.7402,VALID,98,VALID,1.06328,
2010-07-03, 02:37:04,VALID,999.769,VALID,0,VALID,89.8235,VALID,0,VALID,23.7012,VALID,79,VALID,1.91016,
2010-07-03, 02:38:04,VALID,999.786,VALID,0,VALID,89.9837,VALID,0,VALID,23.7207,VALID,77,VALID,1.69336,
2010-07-03, 02:39:04,VALID,999.759,VALID,0,VALID,89.7701,VALID,0,VALID,23.7597,VALID,46,VALID,1.36914,
2010-07-03, 02:40:04,VALID,999.729,VALID,0,VALID,89.5946,VALID,0,VALID,23.7775,VALID,19,VALID,1.15195,
2010-07-03, 02:41:04,VALID,999.714,VALID,0,VALID,89.2894,VALID,0,VALID,23.8768,VALID,5,VALID,0.859766,
2010-07-03, 02:42:04,VALID,999.775,VALID,0,VALID,88.557,VALID,0,VALID,23.9744,VALID,5,VALID,1.09258,
2010-07-03, 02:43:04,VALID,999.798,VALID,0,VALID,87.6338,VALID,0,VALID,23.9354,VALID,24,VALID,1.83398,
2010-07-03, 02:44:04,VALID,999.842,VALID,0,VALID,88.0229,VALID,0,VALID,23.7988,VALID,31,VALID,1.67461,
2010-07-03, 02:45:04,VALID,999.867,VALID,0,VALID,89.1445,VALID,0,VALID,23.7207,VALID,30,VALID,1.84336,
2010-07-03, 02:46:04,VALID,999.837,VALID,0,VALID,89.6404,VALID,0,VALID,23.7012,VALID,38,VALID,2.0918,
2010-07-03, 02:47:04,VALID,999.862,VALID,0,VALID,89.8235,VALID,0,VALID,23.7207,VALID,51,VALID,1.32383,
2010-07-03, 02:48:04,VALID,999.826,VALID,0,VALID,89.6709,VALID,0,VALID,23.7402,VALID,53,VALID,1.2043,
2010-07-03, 02:49:04,VALID,999.812,VALID,0,VALID,89.5717,VALID,0,VALID,23.7207,VALID,33,VALID,0.707422,
2010-07-03, 02:50:04,VALID,999.81,VALID,0,VALID,89.6786,VALID,0,VALID,23.6817,VALID,14,VALID,0.519531,
2010-07-03, 02:51:04,VALID,999.81,VALID,0,VALID,89.9456,VALID,0,VALID,23.6427,VALID,5,VALID,0.437109,
2010-07-03, 02:52:04,VALID,999.828,VALID,0,VALID,90.1134,VALID,0,VALID,23.6232,VALID,5,VALID,0.564453,
2010-07-03, 02:53:04,VALID,999.813,VALID,0,VALID,90.1897,VALID,0,VALID,23.6036,VALID,5,VALID,0.459375,
2010-07-03, 02:54:04,VALID,999.801,VALID,0,VALID,90.5178,VALID,0,VALID,23.5646,VALID,15,VALID,0.698828,
2010-07-03, 02:55:04,VALID,999.775,VALID,0,VALID,90.6857,VALID,0,VALID,23.5256,VALID,16,VALID,0.623047,
2010-07-03, 02:56:04,VALID,999.748,VALID,0,VALID,90.7543,VALID,0,VALID,23.5256,VALID,20,VALID,0.498437,
2010-07-03, 02:57:04,VALID,999.713,VALID,0,VALID,90.6399,VALID,0,VALID,23.4866,VALID,20,VALID,0.505859,
2010-07-03, 02:58:04,VALID,999.724,VALID,0,VALID,90.8459,VALID,0,VALID,23.4263,VALID,20,VALID,0.543359,
2010-07-03, 02:59:04,VALID,999.715,VALID,0,VALID,91.0595,VALID,0,VALID,23.4085,VALID,20,VALID,0.464844,
2010-07-03, 03:00:04,VALID,999.725,VALID,0,VALID,91.1358,VALID,0,VALID,23.389,VALID,20,VALID,0.305859,
2010-07-03, 03:01:04,VALID,999.707,VALID,0,VALID,91.1968,VALID,0,VALID,23.3695,VALID,20,VALID,0.0605469,
2010-07-03, 03:02:04,VALID,999.705,VALID,0,VALID,91.296,VALID,0,VALID,23.3305,VALID,20,VALID,0.0910156,
2010-07-03, 03:03:04,VALID,999.74,VALID,0,VALID,91.5249,VALID,0,VALID,23.311,VALID,97,VALID,0.575,
2010-07-03, 03:04:04,VALID,999.752,VALID,0,VALID,91.792,VALID,0,VALID,23.311,VALID,97,VALID,0.370703,
2010-07-03, 03:05:04,VALID,999.738,VALID,0,VALID,91.8683,VALID,0,VALID,23.3305,VALID,97,VALID,0.0949219,
2010-07-03, 03:06:04,VALID,999.714,VALID,0,VALID,91.8759,VALID,0,VALID,23.3305,VALID,97,VALID,0.308984,
2010-07-03, 03:07:04,VALID,999.722,VALID,0,VALID,91.9293,VALID,0,VALID,23.3287,VALID,97,VALID,0.395312,
2010-07-03, 03:08:04,VALID,999.726,VALID,0,VALID,91.9293,VALID,0,VALID,23.3695,VALID,97,VALID,0.18125,
2010-07-03, 03:09:04,VALID,999.735,VALID,0,VALID,91.853,VALID,0,VALID,23.3287,VALID,97,VALID,0,
2010-07-03, 03:10:04,VALID,999.745,VALID,0,VALID,91.8148,VALID,0,VALID,23.3695,VALID,97,VALID,0.0648438,
2010-07-03, 03:11:04,VALID,999.749,VALID,0,VALID,91.5554,VALID,0,VALID,23.311,VALID,72,VALID,0.701172,
2010-07-03, 03:12:04,VALID,999.77,VALID,0,VALID,91.8683,VALID,0,VALID,23.3305,VALID,50,VALID,0.607422,
2010-07-03, 03:13:04,VALID,999.772,VALID,0,VALID,91.8759,VALID,0,VALID,23.3695,VALID,50,VALID,0.382813,
2010-07-03, 03:14:04,VALID,999.747,VALID,0,VALID,91.7767,VALID,0,VALID,23.3677,VALID,50,VALID,0.0691406,
2010-07-03, 03:15:04,VALID,999.744,VALID,0,VALID,91.7462,VALID,0,VALID,23.3677,VALID,50,VALID,0,
2010-07-03, 03:16:04,VALID,999.757,VALID,0,VALID,91.7996,VALID,0,VALID,23.4067,VALID,50,VALID,0.488672,
2010-07-03, 03:17:04,VALID,999.765,VALID,0,VALID,91.5631,VALID,0,VALID,23.4085,VALID,341,VALID,0.30625,
2010-07-03, 03:18:04,VALID,999.761,VALID,0,VALID,91.3418,VALID,0,VALID,23.389,VALID,341,VALID,0,
2010-07-03, 03:19:04,VALID,999.747,VALID,0,VALID,91.4257,VALID,0,VALID,23.389,VALID,341,VALID,0.299609,
2010-07-03, 03:20:04,VALID,999.788,VALID,0,VALID,91.5249,VALID,0,VALID,23.3695,VALID,341,VALID,0,
2010-07-03, 03:21:04,VALID,999.777,VALID,0,VALID,91.2503,VALID,0,VALID,23.3305,VALID,341,VALID,0,
2010-07-03, 03:22:04,VALID,999.785,VALID,0,VALID,91.4257,VALID,0,VALID,23.311,VALID,341,VALID,0,
2010-07-03, 03:23:04,VALID,999.723,VALID,0,VALID,91.7691,VALID,0,VALID,23.3305,VALID,341,VALID,0.321875,
2010-07-03, 03:24:04,VALID,999.71,VALID,0,VALID,91.6775,VALID,0,VALID,23.35,VALID,341,VALID,0.598828,
2010-07-03, 03:25:04,VALID,999.696,VALID,0,VALID,91.3342,VALID,0,VALID,23.2915,VALID,341,VALID,0.823438,
2010-07-03, 03:26:04,VALID,999.734,VALID,0,VALID,91.5631,VALID,0,VALID,23.2719,VALID,341,VALID,0.847656,
2010-07-03, 03:27:04,VALID,999.721,VALID,0,VALID,91.6699,VALID,0,VALID,23.2719,VALID,341,VALID,0.722266,
2010-07-03, 03:28:04,VALID,999.689,VALID,0,VALID,91.8683,VALID,0,VALID,23.2524,VALID,341,VALID,1.01133,
2010-07-03, 03:29:04,VALID,999.699,VALID,0,VALID,91.9445,VALID,0,VALID,23.2524,VALID,308,VALID,1.12461,
2010-07-03, 03:30:04,VALID,999.676,VALID,0,VALID,91.8759,VALID,0,VALID,23.2134,VALID,267,VALID,0.544922,
2010-07-03, 03:31:04,VALID,999.703,VALID,0,VALID,91.2655,VALID,0,VALID,23.0946,VALID,81,VALID,1.15195,
2010-07-03, 03:32:04,VALID,999.667,VALID,0,VALID,91.6699,VALID,0,VALID,23.0964,VALID,57,VALID,0.514453,
2010-07-03, 03:33:04,VALID,999.688,VALID,0,VALID,91.8301,VALID,0,VALID,23.0573,VALID,1,VALID,0.694141,
2010-07-03, 03:34:04,VALID,999.665,VALID,0,VALID,92.0971,VALID,0,VALID,23.0573,VALID,308,VALID,0.964453,
2010-07-03, 03:35:04,VALID,999.651,VALID,0,VALID,92.2803,VALID,0,VALID,23.0769,VALID,235,VALID,0.548047,
2010-07-03, 03:36:04,VALID,999.69,VALID,0,VALID,92.4023,VALID,0,VALID,23.0769,VALID,225,VALID,0.0632813,
2010-07-03, 03:37:04,VALID,999.707,VALID,0,VALID,92.4786,VALID,0,VALID,23.1159,VALID,225,VALID,0.525391,
2010-07-03, 03:38:04,VALID,999.721,VALID,0,VALID,92.4557,VALID,0,VALID,23.1159,VALID,225,VALID,0.332031,
2010-07-03, 03:39:04,VALID,999.745,VALID,0,VALID,92.3184,VALID,0,VALID,23.0946,VALID,225,VALID,0,
2010-07-03, 03:40:04,VALID,999.69,VALID,0,VALID,92.4481,VALID,0,VALID,23.1354,VALID,225,VALID,0.183203,
2010-07-03, 03:41:04,VALID,999.7,VALID,0,VALID,92.3947,VALID,0,VALID,23.0964,VALID,225,VALID,0.352734,
2010-07-03, 03:42:04,VALID,999.704,VALID,0,VALID,92.3718,VALID,0,VALID,23.1159,VALID,265,VALID,0.690234,
2010-07-03, 03:43:04,VALID,999.688,VALID,0,VALID,92.4405,VALID,0,VALID,23.1354,VALID,288,VALID,0.742188,
2010-07-03, 03:44:04,VALID,999.709,VALID,0,VALID,92.4405,VALID,0,VALID,23.1531,VALID,293,VALID,0.688672,
2010-07-03, 03:45:04,VALID,999.712,VALID,0,VALID,92.3489,VALID,0,VALID,23.2134,VALID,294,VALID,0.422266,
2010-07-03, 03:46:04,VALID,999.764,VALID,0,VALID,92.2192,VALID,0,VALID,23.2134,VALID,294,VALID,0.0917969,